Home > Weather > Bodrum > Past weeks

Flag for Turkey Past Weather in Bodrum, Turkey — Yesterday and Last 2 Weeks

Now
79 °F

Clear.


Feels Like: 81 °F
Forecast: 77 / 93 °F
Wind: 3 mph from Northeast

Location: Bodrum

Current Time: Jul 30, 2016 at 4:57:29 AM

Latest Report: Jul 30, 2016 at 3:00 AM


Visibility: 13 mi

Pressure: 29.67 "Hg

Humidity: 72%

Dew Point: 69 °F

Location of BodrumLocation

Past Weather in Bodrum — Graph

°F

Bodrum Temperature Yesterday

Maximum temperature yesterday: 97 °F (at 2:00 PM)
Minimum temperature yesterday: 77 °F (at 6:00 AM)
Average temperature yesterday: 89 °F

High & Low Weather Summary for the Past Weeks

 TemperatureHumidityPressure
High105 °F (Jul 24, 5:00 PM)76% (Jul 16, 9:00 PM)29.87 "Hg (Jul 16, 9:00 PM)
Low75 °F (Jul 22, 6:00 AM)10% (Jul 24, 6:00 PM)29.57 "Hg (Jul 19, 6:00 PM)
Average89 °F42%29.71 "Hg
* Reported Jul 15 9:00 AM — Jul 30 3:00 AM, Bodrum, Weather by CustomWeather, © 2016

Note: Actual official high and low records may vary slightly from our data, if they occured in-between our weather recording intervals... More about our weather records

Advertising

Bodrum Weather History for the Previous 24 Hours

Scroll right to see more
 ConditionsComfort  
Time TempWeatherWind HumidityBarometerVisibility
3:00 AM
Sat, Jul 30
79 °FClear.3 mph72%29.67 "Hg12 mi
12:00 AM80 °FClear.2 mph67%29.70 "Hg12 mi
9:00 PM
Fri, Jul 29
85 °FClear.2 mph48%29.67 "Hg12 mi
8:00 PM87 °FSunny.3 mph46%29.67 "Hg12 mi
7:00 PM91 °FSunny.7 mph35%29.66 "Hg12 mi
6:00 PM94 °FSunny.7 mph39%29.66 "Hg12 mi
5:00 PM94 °FSunny.9 mph39%29.67 "Hg12 mi
4:00 PM96 °FSunny.7 mph37%29.67 "Hg12 mi
3:00 PM96 °FSunny.7 mph36%29.68 "Hg12 mi
2:00 PM97 °FSunny.7 mph33%29.67 "Hg12 mi
1:00 PM90 °FSunny.7 mph53%29.69 "Hg12 mi
12:00 PM89 °FSunny.6 mph55%29.70 "Hg12 mi
11:00 AM90 °FSunny.2 mph49%29.70 "Hg12 mi
10:00 AM87 °FSunny.1 mph55%29.70 "Hg12 mi
9:00 AM83 °FSunny.2 mph57%29.70 "Hg12 mi
6:00 AM77 °FClear.1 mph73%29.68 "Hg12 mi
Weather by CustomWeather, © 2016

See weather overviewHow to use our weather pages